Location: Cormont
(50.5693°N, 1.7416°E)
Time: 11:21:03
(UTC+00:00)

STARLINK-28 - Pass Details

Date: 21 October 2019
Orbit: 548 x 551 km, 53.0° (Epoch: 20 November)

Event Time Altitude Azimuth Distance (km) Brightness Sun altitude
Rises 19:07:32 0° 285° (WNW) 2,723 8.7 -22.5°
Reaches altitude 10° 19:09:47 10° 288° (WNW) 1,829 7.4 -22.9°
Enters shadow 19:13:44 69° 349° (N) 592 3.7 -23.5°
